Carbondale, IL

10:58 AM CDT on August 17, 2017 (GMT -0500)
Southern Illinois

Weather History for KMDH - February, 2012

Change the Weather History Date:

Thursday, February 9, 2012

  Actual Average Record
Temperature  
Mean Temperature 32 °F -  
Max Temperature 37 °F 39 °F 73 °F (1938)
Min Temperature 28 °F 19 °F -6 °F (1979)
Degree Days  
Heating Degree Days 32    
Moisture  
Dew Point 27 °F    
Average Humidity 77    
Maximum Humidity 96    
Minimum Humidity 62    
Precipitation  
Precipitation 0.13 in - - ()
Sea Level Pressure  
Sea Level Pressure 30.33 in    
Wind  
Wind Speed 3 mph (SW)    
Max Wind Speed 8 mph    
Max Gust Speed -    
Visibility 10 miles    
Events      
Averages and records for this station are not official NWS values.
T = Trace of Precipitation, MM = Missing Value Source: NWS Daily Summary

Daily Weather History Graph

Daily Weather History Graph

Search for Another Location

Airport or City:

Trip Planner

Search our weather history database for the weather conditions in past years. The results will help you decide how hot, cold, wet, or windy it might be!

Date:

Astronomy

Feb. 09, 2012 Rise Set
Actual Time 6:53 AM CST 5:29 PM CST
Civil Twilight 6:26 AM CST 5:56 PM CST
Nautical Twilight 5:55 AM CST 6:27 PM CST
Astronomical Twilight 5:25 AM CST 6:57 PM CST
Moon 7:53 PM CST (2/9) 7:33 AM CST (2/9)
Length of Visible Light 11h 29m
Length of Day
10h 35m
Waning Gibbous, 96% of the Moon is Illuminated
Feb 9
Waning Gibbous
Feb 14
Last Quarter
Feb 21
New
Feb 29
First Quarter
Mar 8
Full

Hourly Weather History & Observations

Time (CST) Temp. Windchill Dew Point Humidity Pressure Visibility Wind Dir Wind Speed Gust Speed Precip Events Conditions
12:52 AM 32.0 °F - 27.0 °F 82% 30.42 in 10.0 mi Calm Calm - N/A   Overcast
1:52 AM 30.0 °F - 27.0 °F 88% 30.41 in 10.0 mi Calm Calm - N/A   Mostly Cloudy
2:52 AM 30.0 °F - 28.0 °F 92% 30.39 in 10.0 mi Calm Calm - N/A   Overcast
3:52 AM 28.9 °F - 28.0 °F 96% 30.38 in 10.0 mi Calm Calm - N/A   Overcast
4:52 AM 30.0 °F - 28.0 °F 92% 30.38 in 10.0 mi Calm Calm - N/A   Overcast
5:52 AM 30.0 °F 26.5 °F 27.0 °F 88% 30.38 in 10.0 mi SSW 3.5 mph - N/A   Overcast
6:52 AM 30.0 °F 25.2 °F 27.0 °F 88% 30.40 in 10.0 mi SSW 4.6 mph - N/A   Overcast
7:52 AM 30.0 °F 26.5 °F 28.0 °F 92% 30.40 in 10.0 mi South 3.5 mph - N/A   Overcast
8:52 AM 32.0 °F 28.7 °F 27.0 °F 82% 30.40 in 10.0 mi SW 3.5 mph - N/A   Overcast
9:52 AM 35.1 °F 32.2 °F 25.0 °F 67% 30.40 in 10.0 mi WNW 3.5 mph - 0.13 in   Overcast
10:52 AM 36.0 °F - 24.1 °F 62% 30.39 in 10.0 mi Calm Calm - N/A   Overcast
11:52 AM 37.0 °F 31.0 °F 25.0 °F 62% 30.36 in 10.0 mi WSW 8.1 mph - N/A   Overcast
12:52 PM 36.0 °F 29.6 °F 25.0 °F 64% 30.33 in 10.0 mi WSW 8.1 mph - N/A   Overcast
1:52 PM 37.0 °F 31.0 °F 25.0 °F 62% 30.31 in 10.0 mi WSW 8.1 mph - N/A   Overcast
2:52 PM 36.0 °F 32.1 °F 26.1 °F 67% 30.30 in 10.0 mi West 4.6 mph - N/A   Overcast
3:52 PM 36.0 °F 30.3 °F 26.1 °F 67% 30.28 in 10.0 mi SW 6.9 mph - N/A   Overcast
4:52 PM 36.0 °F 31.1 °F 27.0 °F 70% 30.27 in 10.0 mi SSW 5.8 mph - N/A   Overcast
5:52 PM 35.1 °F 31.0 °F 28.0 °F 76% 30.26 in 10.0 mi SSW 4.6 mph - N/A   Overcast
6:52 PM 35.1 °F 31.0 °F 28.0 °F 76% 30.26 in 10.0 mi South 4.6 mph - N/A   Overcast
7:52 PM 35.1 °F 30.1 °F 28.0 °F 76% 30.25 in 10.0 mi SSW 5.8 mph - N/A   Overcast
8:52 PM 35.1 °F 30.1 °F 28.0 °F 76% 30.27 in 10.0 mi SW 5.8 mph - N/A   Overcast
9:52 PM 35.1 °F 30.1 °F 28.9 °F 78% 30.25 in 10.0 mi SSW 5.8 mph - N/A   Overcast
10:52 PM 34.0 °F 29.8 °F 28.9 °F 82% 30.24 in 10.0 mi SSW 4.6 mph - N/A   Overcast
11:52 PM 32.0 °F 27.5 °F 27.0 °F 82% 30.22 in 10.0 mi South 4.6 mph - N/A   Partly Cloudy